Regional Weather Roundup
Issued by NWS

Home | Current Version | Previous Version | Graphics & Text | Print | Product List | Glossary On
Versions: 1 2 3 4 5 6 7 8 9 10 11 12 13 14 15 16 17 18 19 20 21 22 23 24 25 26 27 28 29 30 31 32 33 34 35 36 37 38 39 40 41 42 43 44 45 46 47 48 49 50
000
ASUS43 KBIS 281101
RWRND

NORTH DAKOTA REGIONAL WEATHER ROUNDUP
NATIONAL WEATHER SERVICE BISMARCK ND
500 AM CST WED JAN 28 2015

NOTE: "FAIR" INDICATES FEW OR NO CLOUDS BELOW 12,000 FEET WITH NO
SIGNIFICANT WEATHER AND/OR OBSTRUCTIONS TO VISIBILITY.


NDZ001>003-009>011-017-281200-
NORTHWEST NORTH DAKOTA

CITY           SKY/WX    TMP DP  RH WIND       PRES   REMARKS
WILLISTON      MOCLDY    31  29  92 S3        29.73S
MINOT          FOG       28  27  96 NW9       29.73F VSB 1   WCI  19
MINOT AFB      FOG       27  27 100 N6        29.74S VSB 3/4
$$

NDZ018>021-031>035-040>046-281200-
SOUTHWEST NORTH DAKOTA

CITY           SKY/WX    TMP DP  RH WIND       PRES   REMARKS
BISMARCK       PTCLDY    27  27 100 CALM      29.73F
DICKINSON      MOCLDY    36  30  79 W8        29.71S
GARRISON         N/A     29  27  92 CALM      29.71S
HETTINGER ARPT CLOUDY    32  28  85 W5        29.76R
$$

NDZ004>008-012>016-024-026-027-054-281200-
NORTHEAST NORTH DAKOTA

CITY           SKY/WX    TMP DP  RH WIND       PRES   REMARKS
GRAND FORKS    CLOUDY    34  32  92 S10       29.80F FOG
GRND FRKS AFB  CLOUDY    33  32  97 S10       29.80F FOG
DEVILS LAKE    CLOUDY    32  30  93 S7        29.74F VSB 1/2
$$

NDZ022-023-025-028>030-036>039-047>053-281200-
SOUTHEAST NORTH DAKOTA

CITY           SKY/WX    TMP DP  RH WIND       PRES   REMARKS
FARGO          CLOUDY    34  31  88 S18G29    29.82F
JAMESTOWN      FOG       31  31 100 S8        29.74F VSB 1/4
$$



USA.gov is the U.S. government's official web portal to all federal, state and local government web resources and services.